Location: Larrial
(48.2758°N, 4.5331°W)
Time: 09:21:43
(UTC+00:00)

Iridium 4 Rocket - Pass Details

Date: 09 April 2020
Orbit: 585 x 904 km, 86.9° (Epoch: 24 May)

Event Time Altitude Azimuth Distance (km) Brightness Sun altitude
Rises 21:31:41 0° 353° (N) 2,855 7.3 -22.7°
Reaches altitude 10° 21:33:56 10° 349° (N) 1,931 6.3 -23.0°
Maximum altitude 21:38:02 55° 272° (W) 710 3.5 -23.5°
Enters shadow 21:38:57 44° 226° (SW) 816 3.6 -23.6°
